CW0570 Weather Reports


Display with metric or nautical units.
time (UTC)temp
F
wind
direction
speed
MPH
gust
MPH
rain 1hr
in
rain 24hr
in
rain mn
in
humidity
%
barometer
mb
20260901233036 68 160 2.0 8.0 0.00 0.00 0.00 66 1014.8
20260901231536 67 259 0.0 7.0 0.00 0.00 0.00 66 1014.9
20260901230036 68 235 0.0 5.0 0.00 0.00 0.00 66 1014.9
20260901224534 68 247 0.0 3.0 0.00 0.00 0.00 65 1015.1
20260901223034 67 286 1.0 5.0 0.00 0.00 0.00 66 1015.1
20260901221536 65 331 2.0 8.0 0.00 0.00 0.00 69 1015.3
20260901220031 63 318 5.0 7.0 0.00 0.00 0.00 74 1015.6
20260901214542 62 160 0.0 4.0 0.00 0.00 0.00 76 1015.8
20260901213030 62 318 0.0 6.0 0.00 0.00 0.00 76 1015.7
20260901211531 62 296 0.0 5.0 0.00 0.00 0.00 79 1015.6
20260901210029 62 278 0.0 2.0 0.00 0.00 0.00 81 1015.5
20260901204534 62 286 2.0 6.0 0.00 0.00 0.00 82 1015.6
20260901203028 61 360 0.0 3.0 0.00 0.00 0.00 82 1015.6
20260901201527 62 107 1.0 6.0 0.00 0.00 0.00 81 1015.7
20260901200025 63 252 3.0 7.0 0.00 0.00 0.00 82 1015.5
20260901194526 63 167 0.0 8.0 0.00 0.00 0.00 82 1015.6
20260901193025 62 250 1.0 5.0 0.00 0.00 0.00 84 1015.5
20260901191534 63 56 0.0 10.0 0.00 0.00 0.00 82 1015.4
20260901190021 66 261 2.0 12.0 0.00 0.00 0.00 76 1015.2
20260901184520 66 360 1.0 4.0 0.00 0.00 0.00 74 1014.8
20260901183028 67 228 1.0 9.0 0.00 0.00 0.00 73 1014.9
20260901181516 68 283 2.0 4.0 0.00 0.00 0.00 68 1014.7
20260901180014 67 267 2.0 4.0 0.00 0.00 0.00 68 1014.7
20260901174511 66 255 1.0 3.0 0.00 0.00 0.00 71 1014.8
20260901173009 66 279 0.0 3.0 0.00 0.00 0.00 70 1014.6
20260901171506 65 360 1.0 3.0 0.00 0.00 0.00 72 1014.6
20260901170004 64 262 1.0 3.0 0.00 0.00 0.00 75 1014.6
20260901164502 63 273 0.0 2.0 0.00 0.00 0.00 76 1014.6
20260901163102 62 224 0.0 2.0 0.00 0.00 0.00 79 1014.7
20260901161615 61 224 0.0 2.0 0.00 0.00 0.00 81 1014.7
20260901160053 61 224 0.0 0.0 0.00 0.00 0.00 82 1014.8
20260901154613 60 224 0.0 0.0 0.00 0.00 0.00 85 1014.6
20260901153050 59 224 0.0 0.0 0.00 0.00 0.00 85 1014.5
20260901151546 59 224 0.0 0.0 0.00 0.00 0.00 88 1014.5
20260901150054 58 224 0.0 0.0 0.00 0.00 0.00 88 1014.5
20260901144544 58 224 0.0 0.0 0.00 0.00 0.00 90 1014.6
20260901143042 57 224 0.0 0.0 0.00 0.00 0.00 90 1014.4
20260901141554 57 224 0.0 0.0 0.00 0.00 0.00 91 1014.3
20260901140050 57 224 0.0 0.0 0.00 0.00 0.00 91 1014.1
20260901134540 57 224 0.0 0.0 0.00 0.00 0.00 91 1014.0
20260901133040 57 224 0.0 0.0 0.00 0.00 0.00 91 1014.0
20260901131539 57 224 0.0 0.0 0.00 0.00 0.00 90 1013.9
20260901130039 57 224 0.0 0.0 0.00 0.00 0.00 90 1013.9
20260901124545 58 224 0.0 0.0 0.00 0.00 0.00 90 1013.9
20260901123036 58 224 0.0 0.0 0.00 0.00 0.00 89 1014.0
20260901121534 58 224 0.0 0.0 0.00 0.00 0.00 89 1014.0
20260901120034 58 224 0.0 0.0 0.00 0.00 0.00 90 1013.9
20260901114533 58 224 0.0 0.0 0.00 0.00 0.00 89 1014.1
20260901113036 58 224 0.0 0.0 0.00 0.00 0.00 89 1014.2
20260901111531 58 224 0.0 0.0 0.00 0.00 0.00 89 1014.0
20260901110029 58 224 0.0 0.0 0.00 0.00 0.00 89 1014.2
20260901104529 58 224 0.0 0.0 0.00 0.00 0.00 89 1014.3
20260901103032 58 224 0.0 0.0 0.00 0.00 0.00 89 1014.2
20260901101529 58 224 0.0 0.0 0.00 0.00 0.00 89 1014.2
20260901100028 58 224 0.0 0.0 0.00 0.00 0.00 88 1014.1
20260901094526 58 224 0.0 0.0 0.00 0.00 0.00 89 1014.2
20260901093029 58 224 0.0 0.0 0.00 0.00 0.00 89 1014.3
20260901091524 58 224 0.0 0.0 0.00 0.00 0.00 89 1014.2
20260901090023 58 224 0.0 0.0 0.00 0.00 0.00 89 1014.2
20260901084523 59 224 0.0 0.0 0.00 0.00 0.00 89 1014.2
20260901083022 59 224 0.0 0.0 0.00 0.00 0.00 88 1014.2
20260901081520 59 224 0.0 0.0 0.00 0.00 0.00 88 1014.2
20260901080026 59 224 0.0 0.0 0.00 0.00 0.00 88 1014.3
20260901074520 59 224 0.0 0.0 0.00 0.00 0.00 88 1014.4
20260901073017 59 224 0.0 0.0 0.00 0.00 0.00 88 1014.2
20260901071516 59 224 0.0 0.0 0.00 0.00 0.00 87 1014.2
20260901070019 59 224 0.0 0.0 0.00 0.00 0.00 88 1014.2
20260901064519 59 224 0.0 0.0 0.00 0.00 0.00 87 1014.3
20260901063024 59 224 0.0 0.0 0.00 0.00 0.00 87 1014.1
20260901061512 59 224 0.0 0.0 0.00 0.00 0.00 87 1014.4
20260901060011 59 224 0.0 0.0 0.00 0.00 0.00 86 1014.4
20260901054510 59 224 0.0 0.0 0.00 0.00 0.00 86 1014.5
20260901053011 60 224 0.0 0.0 0.00 0.00 0.00 85 1014.7
20260901051509 60 224 0.0 0.0 0.00 0.00 0.00 85 1014.7
20260901050009 60 224 0.0 0.0 0.00 0.00 0.00 85 1014.8
20260901044509 60 224 0.0 0.0 0.00 0.00 0.00 85 1014.9
20260901043008 60 224 0.0 0.0 0.00 0.00 0.00 85 1014.8
20260901041507 60 224 0.0 0.0 0.00 0.00 0.00 85 1014.6
20260901040005 60 224 0.0 0.0 0.00 0.00 0.00 85 1014.4
20260901034511 60 224 0.0 0.0 0.00 0.00 0.00 84 1014.4
20260901033006 60 224 0.0 0.0 0.00 0.00 0.00 84 1014.4
20260901031505 61 224 0.0 0.0 0.00 0.00 0.00 83 1014.3
20260901030100 61 224 0.0 0.0 0.00 0.00 0.00 82 1014.1
20260901024606 61 224 0.0 2.0 0.00 0.00 0.00 81 1014.1
20260901023059 62 224 0.0 0.0 0.00 0.00 0.00 80 1014.1
20260901021600 62 224 0.0 2.0 0.00 0.00 0.00 79 1014.0
20260901020058 62 224 0.0 2.0 0.00 0.00 0.00 78 1014.0
20260901014658 63 224 0.0 2.0 0.00 0.00 0.00 77 1013.9
20260901013115 64 143 1.0 4.0 0.00 0.00 0.00 76 1013.9
20260901011555 64 256 0.0 4.0 0.00 0.00 0.00 74 1014.0
20260901010057 66 235 2.0 5.0 0.00 0.00 0.00 73 1014.0
20260901004554 65 107 1.0 5.0 0.00 0.00 0.00 74 1014.0
20260901003054 64 136 3.0 7.0 0.00 0.00 0.00 75 1013.9
20260901001553 64 321 2.0 5.0 0.00 0.00 0.00 76 1013.8
20260901000052 64 216 0.0 5.0 0.00 0.00 0.00 75 1013.8
20260831234601 65 237 2.0 6.0 0.00 0.01 0.00 74 1014.0